When you browse on this site, cookies collect data to enhance your experience and personalize the content and advertising you see.
Visit our Privacy Policy to learn more. By continuing to use the site, you agree to this use of cookies and data.
  • In Spain
  • List of Countries
  • For 7 days
  • Water Temperature
  • Satellite Maps
  • Weather Map
  • Weather Widgets
  • user-avatar
    Login

    Hourly Weather Lucknow

    Today, 18 February, Monday

    Time Temperature Precipitation Wind Pressure Humidity
    00:00 +16°C° 0 mm 2 mps 746 mmHg 68%
    01:00 +15°C° 0 mm 2 mps 745 mmHg 70%
    02:00 +15°C° 0 mm 2 mps 745 mmHg 73%
    03:00 +14°C° 0 mm 2 mps 745 mmHg 74%
    04:00 +14°C° 0 mm 2 mps 745 mmHg 76%
    05:00 +14°C° 0 mm 2 mps 745 mmHg 74%
    06:00 +15°C° 0 mm 2 mps 745 mmHg 73%
    07:00 +16°C° 0 mm 2 mps 746 mmHg 71%
    08:00 +17°C° 0 mm 2 mps 746 mmHg 70%
    09:00 +19°C° 0 mm 3 mps 746 mmHg 61%
    10:00 +21°C° 0 mm 3 mps 747 mmHg 53%
    11:00 +25°C° 0 mm 4 mps 747 mmHg 47%
    12:00 +26°C° 0 mm 4 mps 746 mmHg 44%
    13:00 +27°C° 0 mm 4 mps 746 mmHg 40%
    14:00 +27°C° 0 mm 5 mps 745 mmHg 37%
    15:00 +26°C° 0 mm 4 mps 745 mmHg 42%
    16:00 +25°C° 0 mm 3 mps 745 mmHg 46%
    17:00 +23°C° 0 mm 1 mps 744 mmHg 54%
    18:00 +23°C° 0 mm 1 mps 744 mmHg 53%
    19:00 +21°C° 0 mm 2 mps 744 mmHg 53%
    20:00 +21°C° 0 mm 2 mps 745 mmHg 52%
    21:00 +22°C° 0 mm 1 mps 745 mmHg 51%
    22:00 +22°C° 0 mm 1 mps 745 mmHg 50%
    23:00 +22°C° 0 mm 1 mps 745 mmHg 49%

    Tomorrow, 19 February, Tuesday

    Time Temperature Precipitation Wind Pressure Humidity
    00:00 +22°C° 0 mm 1 mps 745 mmHg 49%
    01:00 +20°C° 0 mm 2 mps 745 mmHg 50%
    02:00 +20°C° 0 mm 2 mps 745 mmHg 50%
    03:00 +19°C° 0 mm 2 mps 745 mmHg 54%
    04:00 +18°C° 0 mm 2 mps 746 mmHg 58%
    05:00 +17°C° 0 mm 2 mps 746 mmHg 62%
    06:00 +17°C° 0 mm 3 mps 747 mmHg 65%
    07:00 +18°C° 0 mm 3 mps 748 mmHg 68%
    08:00 +19°C° 0 mm 4 mps 748 mmHg 71%
    09:00 +20°C° 0 mm 4 mps 749 mmHg 66%
    10:00 +22°C° 0 mm 4 mps 749 mmHg 60%
    11:00 +25°C° 0 mm 4 mps 750 mmHg 54%
    12:00 +26°C° 0 mm 3 mps 749 mmHg 50%
    13:00 +27°C° 0 mm 3 mps 748 mmHg 46%
    14:00 +28°C° 0 mm 2 mps 748 mmHg 42%
    15:00 +27°C° 0 mm 1 mps 748 mmHg 46%
    16:00 +26°C° 0 mm 1 mps 747 mmHg 50%
    17:00 +25°C° 0 mm 1 mps 747 mmHg 54%
    18:00 +24°C° 0 mm 1 mps 748 mmHg 55%
    19:00 +23°C° 0 mm 1 mps 748 mmHg 57%
    20:00 +21°C° 0 mm 1 mps 749 mmHg 58%
    21:00 +21°C° 0 mm 1 mps 749 mmHg 59%
    22:00 +21°C° 0 mm 1 mps 749 mmHg 60%
    23:00 +20°C° 0 mm 1 mps 749 mmHg 61%

    Day after tomorrow, 20 February, Wednesday

    Time Temperature Precipitation Wind Pressure Humidity
    00:00 +19°C° 0 mm 2 mps 749 mmHg 64%
    01:00 +18°C° 0 mm 2 mps 748 mmHg 67%
    02:00 +18°C° 0 mm 2 mps 748 mmHg 70%
    03:00 +17°C° 0 mm 2 mps 748 mmHg 72%
    04:00 +18°C° 0 mm 1 mps 748 mmHg 74%
    05:00 +18°C° 0 mm 1 mps 748 mmHg 76%
    06:00 +19°C° 0 mm 1 mps 749 mmHg 72%
    07:00 +18°C° 0 mm 0 mps 749 mmHg 68%
    08:00 +19°C° 0 mm 0 mps 750 mmHg 63%
    09:00 +23°C° 0 mm 1 mps 751 mmHg 56%
    10:00 +25°C° 0 mm 1 mps 751 mmHg 48%
    11:00 +27°C° 0 mm 1 mps 751 mmHg 41%
    12:00 +28°C° 0 mm 2 mps 751 mmHg 40%
    13:00 +28°C° 0 mm 2 mps 750 mmHg 40%
    14:00 +29°C° 0 mm 2 mps 749 mmHg 39%
    15:00 +28°C° 0 mm 2 mps 750 mmHg 44%
    16:00 +26°C° 0 mm 3 mps 750 mmHg 48%
    17:00 +25°C° 0 mm 3 mps 750 mmHg 53%
    18:00 +24°C° 0 mm 2 mps 750 mmHg 53%
    19:00 +23°C° 0 mm 2 mps 750 mmHg 53%
    20:00 +22°C° 0 mm 1 mps 751 mmHg 53%
    21:00 +20°C° 0 mm 2 mps 751 mmHg 53%
    22:00 +20°C° 0 mm 2 mps 751 mmHg 52%
    23:00 +19°C° 0 mm 3 mps 751 mmHg 52%

    21 February, Thursday

    Time Temperature Precipitation Wind Pressure Humidity
    00:00 +19°C° 0 mm 2 mps 750 mmHg 51%
    01:00 +19°C° 0 mm 2 mps 750 mmHg 51%
    02:00 +19°C° 0 mm 2 mps 749 mmHg 51%
    03:00 +20°C° 0 mm 1 mps 749 mmHg 50%
    04:00 +19°C° 0 mm 1 mps 749 mmHg 50%
    05:00 +19°C° 0 mm 1 mps 749 mmHg 50%
    06:00 +20°C° 0 mm 1 mps 750 mmHg 50%
    07:00 +21°C° 0 mm 1 mps 751 mmHg 51%
    08:00 +22°C° 0 mm 1 mps 751 mmHg 51%
    09:00 +25°C° 0 mm 1 mps 751 mmHg 45%
    10:00 +27°C° 0 mm 1 mps 751 mmHg 40%
    11:00 +30°C° 0 mm 1 mps 751 mmHg 34%
    12:00 +30°C° 0 mm 1 mps 750 mmHg 33%
    13:00 +31°C° 0 mm 1 mps 749 mmHg 31%
    14:00 +32°C° 0 mm 2 mps 748 mmHg 29%
    15:00 +31°C° 0 mm 1 mps 748 mmHg 34%
    16:00 +30°C° 0 mm 1 mps 748 mmHg 38%
    17:00 +29°C° 0 mm 1 mps 747 mmHg 42%
    18:00 +27°C° 0 mm 2 mps 748 mmHg 44%
    19:00 +26°C° 0 mm 2 mps 748 mmHg 45%
    20:00 +25°C° 0 mm 3 mps 749 mmHg 47%
    21:00 +24°C° 0 mm 2 mps 749 mmHg 50%
    22:00 +23°C° 0 mm 1 mps 749 mmHg 53%
    23:00 +22°C° 0 mm 1 mps 749 mmHg 56%

    22 February, Friday

    Time Temperature Precipitation Wind Pressure Humidity
    00:00 +20°C° 0.1 mm 0 mps 749 mmHg 58%
    01:00 +20°C° 0.1 mm 0 mps 748 mmHg 60%
    02:00 +20°C° 0.1 mm 0 mps 748 mmHg 62%
    03:00 +19°C° 0.1 mm 0 mps 748 mmHg 63%
    04:00 +19°C° 0.1 mm 0 mps 748 mmHg 64%
    05:00 +19°C° 0.1 mm 0 mps 748 mmHg 64%
    06:00 +22°C° 0 mm 1 mps 748 mmHg 62%
    07:00 +23°C° 0 mm 1 mps 749 mmHg 60%
    08:00 +24°C° 0 mm 1 mps 750 mmHg 57%
    09:00 +26°C° 0 mm 1 mps 750 mmHg 51%
    10:00 +28°C° 0 mm 2 mps 750 mmHg 44%
    11:00 +30°C° 0 mm 2 mps 750 mmHg 38%
    12:00 +31°C° 0 mm 2 mps 749 mmHg 36%
    13:00 +31°C° 0 mm 3 mps 748 mmHg 33%
    14:00 +33°C° 0 mm 3 mps 748 mmHg 31%
    15:00 +31°C° 0 mm 3 mps 747 mmHg 36%
    16:00 +29°C° 0 mm 3 mps 747 mmHg 42%
    17:00 +27°C° 0 mm 2 mps 747 mmHg 47%
    18:00 +26°C° 0 mm 2 mps 747 mmHg 49%
    19:00 +25°C° 0 mm 2 mps 747 mmHg 51%
    20:00 +24°C° 0 mm 2 mps 748 mmHg 53%
    21:00 +24°C° 0 mm 3 mps 748 mmHg 54%
    22:00 +22°C° 0 mm 3 mps 747 mmHg 56%
    23:00 +22°C° 0 mm 4 mps 747 mmHg 57%

    23 February, Saturday

    Time Temperature Precipitation Wind Pressure Humidity
    00:00 +21°C° 0 mm 3 mps 747 mmHg 57%
    01:00 +21°C° 0 mm 3 mps 747 mmHg 57%
    02:00 +21°C° 0 mm 3 mps 746 mmHg 57%
    03:00 +20°C° 0 mm 3 mps 746 mmHg 59%
    04:00 +19°C° 0 mm 3 mps 746 mmHg 61%
    05:00 +19°C° 0 mm 3 mps 746 mmHg 64%
    06:00 +20°C° 0 mm 3 mps 747 mmHg 61%
    07:00 +21°C° 0 mm 2 mps 747 mmHg 59%
    08:00 +23°C° 0 mm 2 mps 748 mmHg 57%
    09:00 +25°C° 0 mm 3 mps 748 mmHg 49%
    10:00 +27°C° 0 mm 3 mps 749 mmHg 41%
    11:00 +29°C° 0 mm 3 mps 749 mmHg 34%
    12:00 +30°C° 0 mm 3 mps 748 mmHg 32%
    13:00 +30°C° 0 mm 4 mps 747 mmHg 30%
    14:00 +32°C° 0 mm 4 mps 746 mmHg 29%
    15:00 +29°C° 0 mm 3 mps 746 mmHg 34%
    16:00 +28°C° 0 mm 3 mps 746 mmHg 39%
    17:00 +27°C° 0 mm 3 mps 746 mmHg 43%
    18:00 +25°C° 0 mm 2 mps 746 mmHg 44%
    19:00 +24°C° 0 mm 2 mps 746 mmHg 45%
    20:00 +23°C° 0 mm 2 mps 746 mmHg 45%
    21:00 +22°C° 0 mm 3 mps 746 mmHg 46%
    22:00 +21°C° 0 mm 3 mps 746 mmHg 47%
    23:00 +20°C° 0 mm 3 mps 746 mmHg 47%
    Show more